TIANGONG-2 (41765 NORAD) Tracking and Keplerian Element Data

This shows tracking and keplerian element data for the satellite.

Feedback or suggestion? Click here.




ElementValue
Catalog41765
NameTIANGONG-2
Epoch Orbit10480
Epoch Day198.79844454
Epoch Year2018
RAAN158.3113
Inclination42.7838
Eccentricity0.0005642
Argument of Perigee117.476
Mean Anonmoly319.8615
Mean Motion15.59051146
Decay Rate2.591E-05
L11 41765U 16057A 18198.79844454 .00002591 00000-0 37018-4 0 9994
L22 41765 42.7838 158.3113 0005642 117.4760 319.8615 15.59051146104805

Live tracking and technical data element details for TIANGONG-2 (NORAD 41765). TIANGONG-2 can be tracked NOW for your location showing map with azimuth and elevation plus other details from your city location.

Track the satellite on the map from your city or location and see movement details for azimuth, elevation, latitude, longitude, range, height, and movement on the map or in text.







IsCatalogInMostPopularTable: catalog: 41765, numindb: 86
Update: records affected: 1



GetName: 41765 TIANGONG-2

Hit Count: updated at: Fri, 20 Jul 2018 20:22:55 GMT